This is the latest recevied weather packets stored in our database for station/object EA3CTN-13. If no packets are shown the sender has not sent any weather packets the latest 10 day(s).
| Time | Temp. | Humidity | Pressure | Rain* | Wind** | Luminosity | Snow |
|---|---|---|---|---|---|---|---|
| 1777894398 | 21.11° C | 63% | 1012.8 hPa | - | - | - | - |
| 1777893918 | 21.11° C | 64% | 1012.7 hPa | - | - | - | - |
| 1777893438 | 21.11° C | 62% | 1012.6 hPa | - | - | - | - |
| 1777892958 | 21.11° C | 59% | 1012.6 hPa | - | - | - | - |
| 1777892478 | 21.67° C | 55% | 1012.6 hPa | - | - | - | - |
| 1777891998 | 21.67° C | 55% | 1012.7 hPa | - | - | - | - |
| 1777891518 | 21.67° C | 55% | 1012.8 hPa | - | - | - | - |
| 1777891038 | 21.67° C | 55% | 1013 hPa | - | - | - | - |
| 1777890558 | 21.67° C | 57% | 1013 hPa | - | - | - | - |
| 1777890078 | 21.67° C | 57% | 1013.1 hPa | - | - | - | - |
| 1777889598 | 21.67° C | 57% | 1013 hPa | - | - | - | - |
| 1777889118 | 21.67° C | 56% | 1012.9 hPa | - | - | - | - |
| 1777888638 | 22.22° C | 55% | 1012.8 hPa | - | - | - | - |
| 1777888158 | 22.78° C | 54% | 1012.7 hPa | - | - | - | - |
| 1777887678 | 22.22° C | 55% | 1012.7 hPa | - | - | - | - |
| 1777887199 | 22.22° C | 55% | 1012.8 hPa | - | - | - | - |
| 1777886718 | 21.67° C | 56% | 1012.8 hPa | - | - | - | - |
| 1777886238 | 21.67° C | 56% | 1012.7 hPa | - | - | - | - |
| 1777885758 | 21.67° C | 55% | 1012.8 hPa | - | - | - | - |
| 1777885278 | 21.11° C | 55% | 1012.8 hPa | - | - | - | - |
| 1777884798 | 21.11° C | 52% | 1012.9 hPa | - | - | - | - |
| 1777884318 | 21.11° C | 53% | 1012.9 hPa | - | - | - | - |
| 1777883838 | 21.11° C | 55% | 1013 hPa | - | - | - | - |
| 1777883358 | 21.11° C | 54% | 1012.8 hPa | - | - | - | - |
| 1777882878 | 21.11° C | 55% | 1012.8 hPa | - | - | - | - |
* Rain since midnight (hover to see other rain measurements)
** Current wind speed in m/s (hover to see current wind gust speed)